Find Starlink 32813

NORAD ID: 62869 Int'l Des: 2025-022 Owner: SPXS Country: US Constellation: starlink operational
LEOCIRCULAR

当前视图

正在加载3D地球...

About Starlink 32813

Starlink 32813 (NORAD 62869) is a starlink constellation satellite (v2 mini) launched Feb 2, 2025 by SPXS of US. It operates in LEO, CIRCULAR orbit with a mass of 730.00 kg.

关于 Starlink 32813

正在加载描述...

即将过境

Passes for default location (London). Set your location on the main map for personalized predictions.

高度历史

Loading altitude history...

两行轨道根数

1 62869U 25022R 26168.94818724 .00028848 00000-0 86166-3 0 9998
2 62869 53.1590 23.6795 0001300 46.7545 313.3566 15.34399714 77257
Epoch: Jun 17, 2026 • Age: 17 hours

当前状态

高度 474.3 km
速度 7.63 km/s
星下点 -34.40°S, 93.78°E
发射日期 Feb 2, 2025
运行时间 1.3 years
类型 internet

技术详情

分类 Payload
质量 730.00 kg
干质量 700.00 kg
总质量 730.00 kg
长度 0.30 m
直径 4.10 m
跨度 29.00 m
形状 Box + pan
制造商 SPXS
平台类型 Starlink V2M
阶段状态 In Orbit
所有者/国家 SPXS/US

Most Searched